CALDNA-WX Weather Reports


time (UTC)temp
F
wind
direction
speed
knots
gust
knots
rain 1hr
in
rain 24hr
in
rain mn
in
humidity
%
barometer
mb
20260505151524 53 274 12.2 0.0 0.00 0.00 0.00 35 979.4
20260505124523 52 298 10.4 0.0 0.00 0.00 0.00 65 978.7
20260505123043 52 296 6.1 0.0 0.00 0.00 0.00 62 977.0
20260505121523 51 318 5.2 0.0 0.00 0.00 0.00 62 977.0
20260505120056 51 315 6.1 0.0 0.00 0.00 0.00 62 977.0
20260505114524 50 303 7.8 0.0 0.00 0.00 0.00 61 977.0
20260505113041 50 317 8.7 0.0 0.00 0.00 0.00 62 975.4
20260505111523 51 333 7.8 0.0 0.00 0.00 0.00 62 975.4
20260505101523 51 279 9.6 0.0 0.00 0.00 0.00 51 973.9
20260505100053 52 275 9.6 0.0 0.00 0.00 0.00 51 973.9
20260505094523 52 268 8.7 0.0 0.00 0.00 0.00 48 974.1
20260505093045 53 270 7.8 0.0 0.00 0.00 0.00 50 973.8
20260505091523 53 258 7.8 0.0 0.00 0.00 0.00 50 973.8
20260505090056 53 256 7.8 0.0 0.00 0.00 0.00 50 973.8
20260505084521 54 271 8.7 0.0 0.00 0.00 0.00 59 974.1
20260505083041 54 274 7.8 0.0 0.00 0.00 0.00 71 973.4
20260505081523 53 259 7.0 0.0 0.00 0.00 0.00 71 973.4
20260505080050 53 245 7.0 0.0 0.00 0.00 0.00 48 973.6
20260505074523 54 247 8.7 0.0 0.00 0.00 0.00 74 972.9
20260505073044 55 247 8.7 0.0 0.00 0.00 0.00 74 972.9
20260505071524 56 246 10.4 0.0 0.00 0.00 0.00 74 972.9
20260505070051 56 224 9.6 0.0 0.00 0.00 0.00 74 972.9
20260505064523 56 239 7.8 0.0 0.00 0.00 0.00 67 973.3
20260505063040 57 241 9.6 0.0 0.00 0.00 0.00 76 972.7
20260505061524 57 236 9.6 0.0 0.00 0.00 0.00 76 972.7
20260505060056 57 234 10.4 0.0 0.00 0.00 0.00 76 972.7
20260505054524 58 236 11.3 0.0 0.00 0.00 0.00 72 974.0
20260505053046 58 248 10.4 0.0 0.00 0.00 0.00 63 972.5
20260505051523 60 248 12.2 0.0 0.00 0.00 0.00 63 972.6
20260505041523 62 216 9.6 0.0 0.00 0.00 0.00 59 972.4
20260505040053 63 250 8.7 0.0 0.00 0.00 0.00 59 972.4
20260505034520 63 244 13.0 0.0 0.00 0.00 0.00 58 972.2
20260505033043 62 215 13.9 0.0 0.00 0.00 0.00 62 972.2
20260505031523 62 206 13.9 0.0 0.00 0.00 0.00 62 972.2
20260505030051 62 204 14.8 0.0 0.00 0.00 0.00 62 972.2
20260505024523 63 202 16.5 0.0 0.00 0.00 0.00 54 972.5
20260505023044 64 207 18.2 0.0 0.00 0.00 0.00 59 972.5
20260505021522 63 208 19.1 0.0 0.00 0.00 0.00 59 972.4
20260505020051 64 209 16.5 0.0 0.00 0.00 0.00 59 972.4
20260505014523 64 211 17.4 0.0 0.00 0.00 0.00 58 971.5
20260505013041 64 209 16.5 0.0 0.00 0.00 0.00 58 971.5
20260505011524 64 209 16.5 0.0 0.00 0.00 0.00 58 971.5
20260505010047 65 207 16.5 0.0 0.00 0.00 0.00 58 971.5
20260505004523 66 209 13.9 0.0 0.00 0.00 0.00 43 972.1
20260505003040 67 199 7.0 0.0 0.00 0.00 0.00 41 972.8
20260505001522 67 206 6.1 0.0 0.00 0.00 0.00 41 972.7
20260505000050 68 210 6.1 0.0 0.00 0.00 0.00 41 972.7
20260504234522 69 220 7.8 0.0 0.00 0.00 0.00 35 972.9
20260504233040 70 227 9.6 0.0 0.00 0.00 0.00 35 972.6
20260504231522 71 233 9.6 0.0 0.00 0.00 0.00 35 972.6
20260504230047 71 239 11.3 0.0 0.00 0.00 0.00 35 972.6
20260504224522 72 243 13.0 0.0 0.00 0.00 0.00 35 972.6
20260504223043 72 249 14.8 0.0 0.00 0.00 0.00 37 972.9
20260504221522 72 247 15.6 0.0 0.00 0.00 0.00 37 972.9
20260504220053 72 245 15.6 0.0 0.00 0.00 0.00 37 972.9
20260504214521 73 243 16.5 0.0 0.00 0.00 0.00 35 973.8
20260504213043 73 234 16.5 0.0 0.00 0.00 0.00 35 973.8
20260504211521 73 236 16.5 0.0 0.00 0.00 0.00 31 972.8
20260504210050 72 234 18.2 0.0 0.00 0.00 0.00 31 972.8
20260504204526 72 237 17.4 0.0 0.00 0.00 0.00 33 973.6
20260504203037 73 235 18.2 0.0 0.00 0.00 0.00 33 973.6
20260504201527 73 236 17.4 0.0 0.00 0.00 0.00 33 973.6
20260504200048 73 235 18.2 0.0 0.00 0.00 0.00 38 972.9
20260504194527 73 235 19.1 0.0 0.00 0.00 0.00 32 973.6
20260504193046 73 230 18.2 0.0 0.00 0.00 0.00 32 973.6
20260504191527 73 230 18.2 0.0 0.00 0.00 0.00 32 973.6
20260504190052 73 225 18.2 0.0 0.00 0.00 0.00 32 973.6
20260504184523 74 223 15.6 0.0 0.00 0.00 0.00 23 974.8
20260504183047 73 225 15.6 0.0 0.00 0.00 0.00 24 974.5
20260504181527 73 227 15.6 0.0 0.00 0.00 0.00 24 974.5
20260504180055 72 229 15.6 0.0 0.00 0.00 0.00 24 974.5
20260504174527 72 232 15.6 0.0 0.00 0.00 0.00 35 975.3
20260504173041 72 238 14.8 0.0 0.00 0.00 0.00 30 975.2
20260504171526 71 234 16.5 0.0 0.00 0.00 0.00 30 975.2